GW0994 Weather Reports


time (UTC)temp
F
wind
direction
speed
knots
gust
knots
rain 1hr
in
rain 24hr
in
rain mn
in
humidity
%
barometer
mb
20260507223044 92 0 3.5 9.6 0.00 0.00 0.00 6 1008.8
20260507221543 93 184 0.0 7.8 0.00 0.00 0.00 7 1009.1
20260507220049 94 87 2.6 7.0 0.00 0.00 0.00 7 1009.4
20260507214542 93 91 3.5 9.6 0.00 0.00 0.00 8 1009.7
20260507213101 94 101 2.6 7.8 0.00 0.00 0.00 9 1009.8
20260507211546 92 0 2.6 8.7 0.00 0.00 0.00 8 1010.0
20260507210054 93 299 4.3 7.0 0.00 0.00 0.00 8 1010.2
20260507204547 94 333 0.9 7.0 0.00 0.00 0.00 8 1010.4
20260507203050 93 51 1.7 4.3 0.00 0.00 0.00 8 1010.6
20260507201549 92 0 1.7 7.0 0.00 0.00 0.00 8 1011.0
20260507200046 91 75 3.5 7.0 0.00 0.00 0.00 9 1011.1
20260507194611 91 27 2.6 8.7 0.00 0.00 0.00 10 1011.4
20260507193050 92 250 0.0 5.2 0.00 0.00 0.00 10 1011.4
20260507191550 91 0 1.7 5.2 0.00 0.00 0.00 10 1011.7
20260507190150 90 345 2.6 6.1 0.00 0.00 0.00 10 1012.0
20260507181555 88 225 2.6 4.3 0.00 0.00 0.00 11 1012.6
20260507180050 88 248 0.9 4.3 0.00 0.00 0.00 12 1012.9
20260507174554 87 0 0.9 4.3 0.00 0.00 0.00 13 1013.0
20260507173108 86 315 0.0 2.6 0.00 0.00 0.00 14 1013.1
20260507171548 85 0 1.7 4.3 0.00 0.00 0.00 16 1013.2
20260507170043 84 207 0.9 2.6 0.00 0.00 0.00 18 1013.3
20260507164550 83 0 0.9 3.5 0.00 0.00 0.00 18 1013.4
20260507163050 82 0 0.0 4.3 0.00 0.00 0.00 21 1013.6
20260507161602 81 0 0.0 2.6 0.00 0.00 0.00 21 1013.7
20260507160045 80 278 1.7 2.6 0.00 0.00 0.00 22 1013.8
20260507154543 79 233 0.0 3.5 0.00 0.00 0.00 23 1014.0
20260507153048 77 169 0.9 3.5 0.00 0.00 0.00 26 1013.9
20260507151546 76 249 1.7 4.3 0.00 0.00 0.00 27 1014.0
20260507150058 76 0 0.0 2.6 0.00 0.00 0.00 27 1013.9
20260507144553 75 0 0.0 1.7 0.00 0.00 0.00 27 1013.9
20260507143050 74 0 0.0 0.0 0.00 0.00 0.00 28 1013.9
20260507141624 71 0 0.0 0.0 0.00 0.00 0.00 31 1013.9
20260507140045 69 0 0.0 0.0 0.00 0.00 0.00 35 1013.8
20260507134549 67 0 0.0 0.0 0.00 0.00 0.00 37 1013.8
20260507133050 66 296 0.9 1.7 0.00 0.00 0.00 38 1013.6
20260507131550 0 0.0 0.0 0.00 0.00 0.00 1013.4
20260507130057 0 0.0 0.0 0.00 0.00 0.00 1013.3
20260507124543 0 0.0 0.0 0.00 0.00 0.00 1013.5
20260507123050 0 0.0 0.0 0.00 0.00 0.00 1013.4
20260507121550 0 0.0 0.0 0.00 0.00 0.00 1013.3
20260507120100 0 0.0 0.0 0.00 0.00 0.00 1013.3
20260507114546 0 0.0 0.0 0.00 0.00 0.00 1013.4
20260507113049 0 0.0 0.0 0.00 0.00 0.00 1013.2
20260507111549 63 0.0 0.0 0.00 0.00 0.00 100 1013.3
20260507110054 64 0 0.0 0.0 0.00 0.00 0.00 41 1013.2
20260507104548 65 0 0.0 0.0 0.00 0.00 0.00 37 1013.3
20260507103044 66 0 0.0 0.0 0.00 0.00 0.00 36 1013.3
20260507101544 67 0 0.0 0.0 0.00 0.00 0.00 33 1013.5
20260507100046 68 155 0.9 2.6 0.00 0.00 0.00 31 1013.6
20260507094549 69 171 0.0 2.6 0.00 0.00 0.00 31 1013.7
20260507093050 69 158 0.0 2.6 0.00 0.00 0.00 31 1013.8
20260507091538 69 151 0.0 1.7 0.00 0.00 0.00 31 1013.9
20260507090046 70 179 0.9 3.5 0.00 0.00 0.00 30 1013.8
20260507084543 71 183 1.7 3.5 0.00 0.00 0.00 29 1013.9
20260507083042 71 169 1.7 2.6 0.00 0.00 0.00 29 1013.8
20260507081547 71 162 1.7 4.3 0.00 0.00 0.00 30 1013.9
20260507080043 70 168 0.9 2.6 0.00 0.00 0.00 30 1014.0
20260507074546 69 0 0.0 0.0 0.00 0.00 0.00 32 1014.1
20260507073104 69 0 0.0 0.0 0.00 0.00 0.00 33 1014.1
20260507071544 69 0 0.0 0.0 0.00 0.00 0.00 33 1014.0
20260507070043 69 0 0.0 0.0 0.00 0.00 0.00 33 1014.0
20260507064548 70 0 0.0 0.0 0.00 0.00 0.00 32 1013.9
20260507063057 72 0 0.0 0.0 0.00 0.00 0.00 29 1013.8
20260507061547 71 0 0.0 0.0 0.00 0.00 0.00 32 1013.8
20260507060044 72 0 0.0 0.0 0.00 0.00 0.00 30 1013.9
20260507054548 73 0 0.0 0.0 0.00 0.00 0.00 27 1013.9
20260507053042 74 0 0.0 0.0 0.00 0.00 0.00 27 1013.9
20260507051549 74 0 0.0 0.0 0.00 0.00 0.00 27 1013.8
20260507050056 74 0 0.0 0.0 0.00 0.00 0.00 27 1013.7
20260507044543 75 0 0.0 0.0 0.00 0.00 0.00 26 1013.6
20260507043050 75 0 0.0 0.0 0.00 0.00 0.00 26 1013.5
20260507041549 75 0 0.0 0.0 0.00 0.00 0.00 25 1013.3
20260507040044 76 0 0.0 0.0 0.00 0.00 0.00 23 1013.2
20260507034607 77 0 0.0 0.0 0.00 0.00 0.00 22 1013.1
20260507033101 77 0 0.0 0.0 0.00 0.00 0.00 22 1013.0
20260507031549 78 0 0.0 0.0 0.00 0.00 0.00 21 1012.8
20260507030048 79 0 0.0 0.0 0.00 0.00 0.00 21 1012.6
20260507024554 79 0 0.0 4.3 0.00 0.00 0.00 20 1012.5
20260507023048 80 46 3.5 5.2 0.00 0.00 0.00 19 1012.2
20260507021542 81 23 1.7 4.3 0.00 0.00 0.00 19 1012.1
20260507020044 82 0 2.6 6.1 0.00 0.00 0.00 18 1011.9
20260507014541 82 0 0.9 6.1 0.00 0.00 0.00 18 1011.8
20260507013050 83 35 1.7 7.8 0.00 0.00 0.00 18 1011.9
20260507011543 84 73 0.0 2.6 0.00 0.00 0.00 17 1012.0
20260507010048 84 52 2.6 6.1 0.00 0.00 0.00 17 1011.9
20260507004556 83 87 0.9 7.8 0.00 0.00 0.00 17 1011.9
20260507003050 84 57 1.7 6.1 0.00 0.00 0.00 17 1011.9
20260507001605 83 86 3.5 6.1 0.00 0.00 0.00 18 1011.8
20260507000047 83 154 4.3 7.0 0.00 0.00 0.00 18 1011.9
20260506234552 82 0 0.9 7.8 0.00 0.00 0.00 18 1011.9
20260506233047 84 45 3.5 7.0 0.00 0.00 0.00 17 1012.0
20260506231549 84 0 0.0 5.2 0.00 0.00 0.00 17 1012.2
20260506230054 82 0 0.9 8.7 0.00 0.00 0.00 19 1012.5
20260506224604 82 89 4.3 8.7 0.00 0.00 0.00 18 1012.6